SCP
1 1 0 0 0 1 1 1 1 1 0 0 0 1 1 1 1 0 0 0 0 0 0 0 0 0 1 1 1 1 1 1 1 1 1 1 2 2
1 1 1 0 1 1 1 1 1 1 0 0 0 1 1 1 0 0 0 0 0 0 0 0 0 0 0 1 1 1 1 1 1 1 1 2 2 2
1 1 1 1 1 1 1 1 1 1 1 0 1 1 1 0 0 1 1 0 0 0 0 0 0 0 0 0 0 0 1 1 1 1 1 1 2 2
1 1 1 1 1 1 1 1 1 1 1 1 1 1 1 1 1 1 1 0 0 0 0 0 0 0 0 0 0 0 0 0 1 1 1 1 1 1
1 1 1 1 1 1 1 1 2 1 1 1 1 1 1 1 1 1 1 0 0 0 0 0 0 0 0 0 0 0 0 0 0 1 1 1 1 0
1 1 1 1 1 1 1 1 1 2 2 1 1 1 1 1 1 0 0 0 0 0 0 0 0 0 0 0 0 0 0 0 0 0 0 0 0 0
2 1 1 1 0 0 0 1 1 1 1 1 1 1 0 0 0 0 0 0 0 0 0 0 0 0 0 0 0 0 0 0 0 0 0 0 0 0
2 1 1 0 0 0 0 0 0 1 1 1 0 0 0 0 0 0 0 0 0 0 0 0 0 1 1 0 0 0 0 0 0 0 0 0 0 0
1 1 0 0 0 0 0 0 0 0 0 0 0 0 0 0 0 0 0 0 0 0 0 0 0 0 0 0 0 0 0 0 0 0 0 0 0 0
1 0 0 0 0 0 0 0 0 0 0 0 0 0 0 0 0 0 0 0 0 0 0 0 0 0 0 0 0 0 0 0 0 0 0 0 0 0
0 0 0 0 0 0 0 0 0 0 0 0 0 0 0 0 0 0 0 0 0 0 0 0 0 0 0 0 0 0 0 0 0 0 0 0 0 0
0 0 0 0 0 0 0 0 0 0 0 0 0 0 0 0 0 0 0 0 0 0 0 0 0 0 0 0 0 0 0 0 0 0 0 0 0 0
0 0 0 0 0 0 0 0 0 0 0 0 0 0 0 0 0 0 0 0 0 0 0 0 0 0 0 0 1 1 1 1 0 0 0 0 0 0
0 0 0 0 0 0 0 0 0 0 0 0 0 0 0 0 0 0 0 0 0 0 0 0 0 0 0 0 0 1 1 1 1 1 0 0 0 0
0 0 0 0 0 0 0 0 0 0 0 0 0 0 0 0 0 0 0 0 0 0 0 0 0 0 0 0 0 1 1 1 1 1 1 1 1 0
0 0 0 0 0 0 0 0 0 0 0 0 0 0 0 0 0 0 0 0 0 0 0 0 0 0 0 0 0 0 0 1 1 1 1 1 1 1
0 0 0 0 0 0 0 0 0 0 0 0 0 0 0 0 0 0 0 0 0 0 0 0 0 0 0 0 0 0 0 0 1 1 1 1 1 1
0 0 0 0 0 0 0 0 0 0 0 0 0 0 0 0 0 0 0 0 0 0 0 0 0 0 0 0 0 0 0 1 1 1 1 1 1 1
0 0 0 0 1 1 0 0 0 0 0 0 0 0 0 0 0 0 0 0 0 0 0 0 0 0 0 0 0 0 0 1 1 1 1 1 1 1
0 0 0 1 1 1 1 0 0 0 0 0 0 0 0 0 0 0 0 0 0 0 0 0 0 0 0 0 0 0 0 1 1 1 1 1 1 1
1 1 1 1 1 1 1 0 0 0 0 0 0 0 0 0 0 0 0 0 0 0 0 0 0 0 0 0 0 0 0 0 1 1 1 1 1 1
1 1 1 1 1 1 1 0 0 0 0 0 0 0 0 0 0 0 0 0 0 0 0 0 0 0 0 0 0 0 0 0 0 0 0 0 0 0
1 1 1 1 1 1 1 0 0 0 0 0 0 0 0 0 0 0 0 0 0 0 0 0 0 0 0 0 0 0 0 0 0 0 0 0 0 0
Wind_Speed
6 5 5 5 5 5 5 5 6 6 5 4 4 3 3 3 1 3 4 3 4 5 6 7 7 7 7 7 7 8 8 9 9 10 10 9 9 10
5 6 6 5 4 5 5 5 6 6 6 4 4 4 3 3 2 3 3 4 5 6 6 6 7 7 7 7 8 8 8 9 10 10 10 10 10 10
6 6 6 6 5 5 5 5 5 5 6 5 4 3 3 5 4 4 4 4 4 7 7 6 6 7 8 8 8 9 9 9 9 9 10 10 10 10
7 6 7 5 6 6 5 6 5 5 6 6 5 4 4 5 5 5 4 4 4 6 7 7 7 7 8 8 8 9 9 9 9 9 9 9 9 9
6 7 7 6 7 6 6 6 5 5 5 5 5 4 4 4 4 5 5 4 5 5 8 9 9 8 8 8 9 9 9 9 9 8 8 9 9 9
6 7 7 7 6 7 6 6 6 6 5 5 5 4 3 4 4 4 4 4 4 4 4 5 7 9 9 9 9 9 9 9 9 8 8 8 8 8
7 6 6 6 6 6 6 6 6 5 5 4 4 4 4 3 4 4 4 3 4 4 4 5 5 6 7 9 10 10 10 9 9 9 9 9 9 9
7 6 6 5 5 7 8 8 8 7 6 5 5 5 5 5 4 4 4 4 4 3 4 4 4 5 5 6 8 10 10 10 9 9 9 9 10 10
7 6 6 4 4 5 5 8 8 8 8 7 7 6 6 5 5 6 5 5 4 3 4 5 4 5 5 4 10 10 10 10 10 10 10 10 10 10
6 6 6 6 5 5 6 6 6 5 6 7 6 7 6 5 5 6 6 6 6 5 4 5 4 4 4 3 9 11 11 11 11 11 11 10 10 10
6 5 5 6 2 3 6 6 6 5 5 5 6 6 6 7 6 6 6 6 5 4 4 5 4 4 4 5 7 12 12 12 12 12 11 11 10 10
5 4 2 4 3 4 5 6 6 6 5 5 5 7 8 7 9 8 7 6 5 4 3 4 5 4 4 4 4 6 8 11 12 12 12 12 11 9
6 4 2 1 4 5 6 6 6 7 7 7 5 5 5 5 6 7 7 7 7 5 3 4 5 5 5 3 4 4 5 6 8 9 12 13 13 12
6 5 3 2 4 5 6 6 7 7 7 6 5 5 5 4 4 5 6 7 7 8 7 6 6 5 5 5 4 4 4 5 5 6 7 10 13 14
5 5 7 7 7 6 7 8 7 6 6 5 5 5 5 4 4 4 5 7 8 9 8 8 8 6 6 6 5 4 4 5 5 5 5 6 7 8
4 5 6 8 7 7 5 5 5 4 5 5 5 5 5 4 4 5 5 5 6 7 7 8 8 8 7 7 6 6 6 5 5 5 6 6 6 7
6 5 4 4 3 3 3 3 3 3 4 5 5 5 5 5 5 4 5 5 6 6 5 5 7 8 9 8 8 7 6 6 5 4 5 6 6 7
5 4 4 5 5 5 4 4 4 4 4 5 5 5 5 5 5 4 5 6 6 6 6 5 5 5 7 8 8 9 7 6 5 5 6 7 7 6
4 4 4 5 5 5 5 5 5 4 4 4 4 5 5 5 5 5 5 6 6 6 6 6 5 6 7 8 7 9 8 6 6 6 6 7 7 6
3 4 5 5 5 5 6 6 5 5 4 4 5 5 5 5 5 5 5 6 6 6 6 6 6 6 7 7 6 5 9 8 6 7 7 6 6 4
4 5 5 5 6 6 5 6 6 5 5 5 5 5 5 6 6 6 6 6 7 7 7 6 4 4 5 6 7 6 5 7 6 6 7 7 6 6
5 5 5 5 6 6 6 6 6 6 6 6 6 6 6 6 7 7 7 7 6 6 7 6 5 5 6 7 7 7 6 4 6 7 7 6 6 6
5 5 5 5 5 5 5 7 7 6 6 7 7 7 7 7 6 6 7 7 7 6 6 6 5 5 6 6 7 7 8 6 4 4 4 6 7 6
Wind_Direction
285 279 277 280 279 281 277 276 282 290 297 298 285 286 287 300 288 266 255 185 196 214 218 220 222 220 221 223 219 219 218 219 221 219 220 222 225 228
289 292 286 285 283 280 276 273 270 274 283 291 289 297 312 299 255 270 265 186 204 210 215 220 222 218 219 222 219 217 216 216 219 219 218 218 221 223
292 289 285 286 283 286 282 274 270 270 275 283 284 284 277 274 268 264 254 242 214 192 202 214 221 220 220 219 219 217 215 214 216 216 219 222 222 222
294 294 290 285 279 278 280 280 279 275 273 281 288 282 274 268 262 260 253 243 244 182 190 206 219 222 223 220 217 215 213 212 214 216 218 222 224 223
292 290 288 285 281 281 277 280 279 273 267 271 279 281 273 267 264 258 254 250 251 206 196 203 213 220 224 222 219 216 213 213 213 213 215 219 223 224
287 284 283 283 282 284 282 281 281 279 268 264 270 267 262 257 259 258 252 242 248 244 223 206 200 207 219 222 218 215 214 215 215 214 213 215 217 220
286 282 283 285 286 282 288 294 289 284 281 276 273 271 269 260 257 264 262 261 257 246 238 223 205 211 206 213 214 211 210 212 215 216 217 219 219 220
291 292 287 266 254 243 253 265 276 278 287 287 280 277 276 272 269 267 265 263 261 235 246 245 235 234 224 216 188 191 203 210 216 218 219 221 222 222
291 293 293 300 288 286 258 239 245 244 251 270 280 281 280 274 274 268 265 270 276 269 256 255 240 242 239 209 167 186 202 212 217 219 219 220 222 223
288 291 292 293 296 304 292 281 275 258 245 246 263 271 275 282 274 272 271 262 257 245 242 252 244 246 247 220 174 191 203 212 217 220 220 220 220 221
288 291 291 289 315 289 280 286 286 280 252 246 261 273 280 273 273 270 259 252 251 242 219 245 254 254 245 233 194 190 202 211 217 219 220 219 220 222
296 287 261 272 289 266 271 283 289 293 296 280 251 245 247 242 232 245 258 262 263 257 218 237 249 251 247 233 221 199 207 210 214 218 218 217 213 221
309 307 319 215 264 265 266 274 283 293 289 280 270 261 247 237 227 223 238 258 265 266 255 241 257 255 258 250 237 230 226 215 208 214 214 213 209 218
302 311 328 341 291 278 269 276 280 277 270 272 274 274 269 261 253 246 241 247 258 266 275 269 263 266 267 262 254 239 236 235 230 224 214 199 207 219
297 307 302 292 284 267 246 253 260 261 270 274 276 278 280 284 280 259 247 244 249 251 249 250 254 257 260 265 268 258 253 246 238 238 231 216 214 212
283 284 264 259 257 266 270 251 253 270 281 285 287 286 285 273 261 263 259 251 250 247 235 234 244 254 256 258 259 258 254 251 245 244 243 236 228 226
320 299 300 303 304 298 294 298 292 282 272 276 280 280 280 276 272 269 263 259 259 261 251 230 228 232 245 258 259 256 258 255 251 250 250 249 241 236
292 299 311 313 313 314 312 310 304 302 301 294 288 287 288 287 283 277 272 265 261 260 261 257 247 240 241 238 235 254 256 251 247 242 247 251 249 241
277 305 314 317 319 322 320 314 312 316 309 297 293 290 289 290 286 278 270 270 269 266 265 258 250 249 253 257 235 217 247 256 255 247 241 246 252 250
311 321 324 327 327 325 324 322 322 320 317 311 307 301 297 293 292 290 286 285 280 274 267 260 255 256 259 270 277 251 222 243 250 257 258 253 253 243
339 334 333 333 331 330 328 327 325 325 326 317 309 302 300 298 295 294 290 284 277 278 275 271 272 263 271 266 264 261 242 221 245 258 265 264 263 254
340 338 338 338 336 335 335 333 327 325 323 317 316 310 303 296 296 295 295 291 283 276 277 277 268 251 251 255 263 269 264 242 221 227 248 262 272 272
348 341 337 338 338 335 336 333 330 329 330 327 321 315 310 307 304 301 299 295 297 296 290 285 278 266 263 263 266 269 268 260 252 236 230 215 214 228